Location: Archemont
(49.1579°N, 1.7598°E)
Time: 12:42:09
(UTC+00:00)

ATLAS CENTAUR R/B - Pass Details

Date: 03 February 2023
Orbit: 450 x 653 km, 64.7° (Epoch: 19 March)

Event Time Altitude Azimuth Distance (km) Brightness Sun altitude
Rises 18:54:33 0° 265° (W) 2,966 6.7 -20.1°
Reaches altitude 10° 18:57:25 10° 282° (WNW) 2,035 5.3 -20.6°
Maximum altitude 19:00:53 20° 330° (NNW) 1,434 3.7 -21.1°
Enters shadow 19:03:30 13° 12° (NNE) 1,770 3.8 -21.6°
